Weather History for YSRI - February, 2014

Change the Weather History Date:

Wednesday, February 12, 2014

  Actual Average (YSSY) Record (YSSY)
Temperature  
Mean Temperature 76 °F -  
Max Temperature 84 °F 82 °F 91 °F (1998)
Min Temperature 69 °F 62 °F 62 °F (2002)
Cooling Degree Days 12    
Growing Degree Days 26 (Base 50)    
Moisture  
Dew Point 69 °F    
Average Humidity 85    
Maximum Humidity 100    
Minimum Humidity 51    
Precipitation  
Precipitation 0.00 in 0.13 in - ()
Sea Level Pressure  
Sea Level Pressure 29.99 in    
Wind  
Wind Speed 5 mph ()    
Max Wind Speed 17 mph    
Max Gust Speed -    
Visibility 5.8 miles    
Events Rain    
Averages and records for this station are not official NWS values.
T = Trace of Precipitation, MM = Missing Value Source: Averaged Metar Reports

Daily Weather History Graph

Daily Weather History Graph

Search for Another Location

Airport or City:

Trip Planner

Search our weather history database for the weather conditions in past years. The results will help you decide how hot, cold, wet, or windy it might be!

Date:

Astronomy

Feb. 12, 2014 Rise Set
Actual Time 6:29 AM AEDT 7:52 PM AEDT
Civil Twilight 6:02 AM AEDT 8:18 PM AEDT
Nautical Twilight 5:31 AM AEDT 8:50 PM AEDT
Astronomical Twilight 4:58 AM AEDT 9:22 PM AEDT
Moon 5:52 PM AEDT (2/12) 3:52 AM AEDT (2/12)
Length of Visible Light 14h 15m
Length of Day
13h 23m
Waxing Gibbous, 92% of the Moon is Illuminated
Feb 12
Waxing Gibbous
Feb 15
Full
Feb 23
Last Quarter
Mar 1
New
Mar 9
First Quarter

Hourly Weather History & Observations

Time (AEDT) Temp. Heat Index Dew Point Humidity Pressure Visibility Wind Dir Wind Speed Gust Speed Precip Events Conditions
12:00 AM 71.6 °F - 68.0 °F 88% 29.98 in 6.2 mi East 11.5 mph - N/A   Overcast
12:11 AM 71.6 °F - 69.8 °F 94% 29.98 in 3.7 mi ESE 10.4 mph - N/A   Overcast
12:30 AM 71.6 °F - 69.8 °F 94% 30.01 in - East 6.9 mph - N/A Rain Light Rain
1:00 AM 69.8 °F - 69.8 °F 100% 30.01 in 6.2 mi NNE 3.5 mph - N/A Rain Light Rain Showers
1:04 AM 69.8 °F - 69.8 °F 100% 30.01 in 6.2 mi NNE 1.2 mph - N/A   Overcast
1:09 AM 69.8 °F - 69.8 °F 100% 30.01 in 3.7 mi Calm Calm - N/A   Overcast
1:30 AM 69.8 °F - 69.8 °F 100% 29.98 in 3.7 mi Calm Calm - N/A   Overcast
1:46 AM 69.8 °F - 69.8 °F 100% 29.98 in 6.2 mi West 1.2 mph - N/A   Overcast
2:00 AM 69.8 °F - 69.8 °F 100% 29.98 in 6.2 mi WSW 4.6 mph - N/A   Overcast
2:30 AM 69.8 °F - 69.8 °F 100% 29.98 in 5.6 mi SW 1.2 mph - N/A   Overcast
3:00 AM 69.8 °F - 69.8 °F 100% 29.98 in 6.2 mi WSW 5.8 mph - N/A   Overcast
3:30 AM 69.8 °F - 69.8 °F 100% 29.98 in 6.2 mi SW 3.5 mph - N/A   Overcast
3:53 AM 69.8 °F - 69.8 °F 100% 29.98 in 3.1 mi SW 3.5 mph - N/A Rain Light Rain Showers
4:00 AM 69.8 °F - 69.8 °F 100% 29.98 in - SW 4.6 mph - N/A   Overcast
4:12 AM 69.8 °F - 69.8 °F 100% 29.98 in 6.2 mi Calm Calm - N/A   Overcast
4:19 AM 69.8 °F - 69.8 °F 100% 29.95 in 6.2 mi Calm Calm - N/A   Overcast
4:30 AM 69.8 °F - 69.8 °F 100% 29.95 in 6.2 mi SW 3.5 mph - N/A   Overcast
4:54 AM 69.8 °F - 69.8 °F 100% 29.95 in 6.2 mi Calm Calm - N/A   Overcast
5:00 AM 69.8 °F - 69.8 °F 100% 29.95 in 6.2 mi Calm Calm - N/A   Overcast
5:08 AM 69.8 °F - 69.8 °F 100% 29.95 in 6.2 mi Calm Calm - N/A   Overcast
5:30 AM 69.8 °F - 69.8 °F 100% 29.95 in 6.2 mi Calm Calm - N/A   Overcast
6:00 AM 69.8 °F - 69.8 °F 100% 29.98 in 6.2 mi Calm Calm - N/A   Overcast
6:30 AM 69.8 °F - 69.8 °F 100% 29.98 in 6.2 mi Calm Calm - N/A   Overcast
6:52 AM 69.8 °F - 69.8 °F 100% 29.98 in 6.2 mi SW 3.5 mph - N/A   Overcast
7:00 AM 69.8 °F - 69.8 °F 100% 29.98 in 6.2 mi Calm Calm - N/A   Overcast
7:30 AM 71.6 °F - 69.8 °F 94% 29.98 in 6.2 mi Calm Calm - N/A   Overcast
8:00 AM 71.6 °F - 69.8 °F 94% 30.01 in 6.2 mi SW 4.6 mph - N/A   Overcast
8:30 AM 73.4 °F - 71.6 °F 94% 30.01 in 6.2 mi SSW 4.6 mph - N/A   Overcast
9:00 AM 73.4 °F - 71.6 °F 94% 30.01 in 5.6 mi SSW 4.6 mph - N/A   Overcast
9:26 AM 75.2 °F - 71.6 °F 89% 30.01 in 5.6 mi SW 1.2 mph - N/A   Overcast
9:30 AM 75.2 °F - 71.6 °F 89% 30.01 in 5.6 mi SW 1.2 mph - N/A   Overcast
10:00 AM 75.2 °F - 69.8 °F 83% 30.01 in 6.2 mi Calm Calm - N/A   Overcast
10:30 AM 77.0 °F - 68.0 °F 74% 30.01 in 6.2 mi SSE 2.3 mph - N/A   Mostly Cloudy
10:32 AM 77.0 °F - 68.0 °F 74% 30.01 in 6.2 mi South 3.5 mph - N/A   Mostly Cloudy
11:00 AM 80.6 °F 82.7 °F 66.2 °F 61% 30.01 in 6.2 mi East 3.5 mph - N/A   Overcast
11:30 AM 80.6 °F 82.7 °F 66.2 °F 61% 30.01 in 6.2 mi South 4.6 mph - N/A   Mostly Cloudy
12:00 PM 80.6 °F 82.7 °F 66.2 °F 61% 30.01 in 6.2 mi SSE 2.3 mph - N/A   Overcast
12:30 PM 80.6 °F 82.7 °F 66.2 °F 61% 29.98 in 6.2 mi South 3.5 mph - N/A   Overcast
1:00 PM 84.2 °F 86.6 °F 66.2 °F 55% 29.98 in 6.2 mi South 4.6 mph - N/A   Overcast
1:30 PM 84.2 °F 87.3 °F 68.0 °F 58% 29.98 in 6.2 mi South 10.4 mph - N/A   Mostly Cloudy
2:00 PM 84.2 °F 86.6 °F 66.2 °F 55% 29.95 in 6.2 mi South 6.9 mph - N/A   Mostly Cloudy
2:30 PM 84.2 °F 85.6 °F 64.4 °F 51% 29.95 in 6.2 mi ESE 10.4 mph - N/A   Overcast
3:00 PM 84.2 °F 85.6 °F 64.4 °F 51% 29.95 in 6.2 mi SSE 9.2 mph - N/A   Mostly Cloudy
3:30 PM 84.2 °F 86.6 °F 66.2 °F 55% 29.92 in 6.2 mi SSE 11.5 mph - N/A   Overcast
4:00 PM 84.2 °F 86.6 °F 66.2 °F 55% 29.92 in 6.2 mi SE 12.7 mph - N/A   Overcast
4:30 PM 84.2 °F 86.6 °F 66.2 °F 55% 29.92 in 6.2 mi SE 11.5 mph - N/A   Overcast
5:00 PM 84.2 °F 86.6 °F 66.2 °F 55% 29.92 in 6.2 mi SE 12.7 mph - N/A   Overcast
5:30 PM 82.4 °F 84.6 °F 66.2 °F 58% 29.92 in 6.2 mi SE 13.8 mph - N/A   Overcast
6:00 PM 80.6 °F 82.7 °F 66.2 °F 61% 29.95 in 6.2 mi SE 16.1 mph - N/A   Overcast
6:30 PM 78.8 °F - 66.2 °F 65% 29.95 in 6.2 mi ESE 17.3 mph - N/A   Overcast
7:00 PM 78.8 °F - 66.2 °F 65% 29.95 in 6.2 mi SE 13.8 mph - N/A   Overcast
7:30 PM 77.0 °F - 66.2 °F 69% 29.98 in 6.2 mi SE 13.8 mph - N/A   Overcast
8:00 PM 77.0 °F - 66.2 °F 69% 30.01 in 6.2 mi SE 10.4 mph - N/A   Overcast
8:30 PM 75.2 °F - 68.0 °F 78% 30.01 in 6.2 mi SE 11.5 mph - N/A   Overcast
9:00 PM 75.2 °F - 68.0 °F 78% 30.01 in 6.2 mi SE 10.4 mph - N/A Rain Light Rain Showers
9:53 PM 71.6 °F - 71.6 °F 100% 30.04 in 4.3 mi SSW 2.3 mph - N/A Rain Light Rain Showers
9:54 PM 71.6 °F - 71.6 °F 100% 30.04 in 3.7 mi SSW 2.3 mph - N/A Rain Light Rain Showers
10:00 PM 71.6 °F - 71.6 °F 100% 30.04 in 4.3 mi WSW 4.6 mph - N/A Rain Light Rain Showers
10:11 PM 71.6 °F - 71.6 °F 100% 30.04 in 4.3 mi Calm Calm - N/A Rain Light Rain Showers
10:15 PM 71.6 °F - 71.6 °F 100% 30.04 in 4.3 mi Calm Calm - N/A Rain Light Rain Showers
10:30 PM 71.6 °F - 71.6 °F 100% 30.04 in 6.2 mi Calm Calm - N/A   Overcast
10:32 PM 71.6 °F - 71.6 °F 100% 30.04 in 6.2 mi Calm Calm - N/A   Overcast
11:00 PM 71.6 °F - 71.6 °F 100% 30.04 in 6.2 mi WSW 6.9 mph - N/A   Overcast
11:30 PM 71.6 °F - 71.6 °F 100% 30.04 in 6.2 mi WSW 1.2 mph - N/A   Overcast